Location: Saint Louis
(38.6272°N, 90.1978°W)
Time: 14:45:57
(UTC-05:00)

ISS - Pass Details

Date: 05 August 2013
Orbit: 402 x 406 km, 51.6° (Epoch: 29 August)

Event Time Altitude Azimuth Distance (km) Brightness Sun altitude
Rises 20:45:35 0° 239° (WSW) 2,322 1.0 -7.7°
Reaches altitude 10° 20:47:42 10° 244° (WSW) 1,459 0.0 -8.0°
Maximum altitude 20:50:54 56° 323° (NW) 483 -2.6 -8.6°
Drops below altitude 10° 20:54:08 10° 44° (NE) 1,456 -0.7 -9.1°
Sets 20:56:14 0° 49° (NE) 2,317 0.3 -9.5°
